Volver al catálogo

STARLINK-31177

ActivoComunicacionesVLEO
NORAD 58873·PAYLOAD·🇺🇸 United States

Lanzado Jan 29, 2024 desde Cape Canaveral Space Force Station

Loading…

Próximos Pases (próximas 24 horas)

TLE

ActualizadoSource: CelesTrak SupGP

Época: Sep 15, 2026, 02:25 UTC

1 58873C 24019W   26258.10118056 -.00014954  00000+0 -54171-3 0  2585
2 58873  42.9991 258.9537 0001319 265.9032  90.9386 15.27580253    11

Sigue STARLINK-31177 en tiempo real con AllMySat

Download on the App Store